Hourly Data Report for September 20, 2017

All times are specified in Local Standard Time (LST). Add 1 hour to adjust for Daylight Saving Time where and when it is observed.

MIRAMICHI RCS
NEW BRUNSWICK

47°00'34.000" N
65°27'54.000" W
33.00 m
8100989
71744
ACQ

Download Data

Hourly Data (September 2017)
Hourly Data Report for September 20, 2017
Temp Definition
°C
Dew Point Temp Definition
°C
Rel Hum Definition
%
Wind Dir Definition
10's deg

Wind Spd Definition
km/h
Visibility Definition
km
Stn Press Definition
kPa
Hmdx Definition


Wind Chill Definition


Weather Definition


TIME
00:00 16.0 15.4 97 25 4   101.55     LegendNANA
01:00 14.6 14.3 98 27 4   101.54     LegendNANA
02:00 14.9 14.7 98 26 1   101.51     LegendNANA
03:00 14.5 14.2 98 0 1   101.46     LegendNANA
04:00 14.5 14.2 98 17 5   101.43     LegendNANA
05:00 14.8 14.6 99 20 3   101.42     LegendNANA
06:00 13.6 13.3 98 24 4   101.43     LegendNANA
07:00 14.7 14.5 99 25 4   101.46     LegendNANA
08:00 16.5 16.2 98 26 3   101.43     LegendNANA
09:00 18.3 16.7 91 30 5   101.42     LegendNANA
10:00 21.2 17.2 78   0   101.38 27   LegendNANA
11:00 23.1 16.9 68 31 6   101.35 28   LegendNANA
12:00 24.2 16.2 61 35 6   101.28 29   LegendNANA
13:00 25.5 17.0 59 5 3   101.21 31   LegendNANA
14:00 25.9 16.8 57 34 7   101.17 31   LegendNANA
15:00 25.7 17.1 59 4 9   101.15 31   LegendNANA
16:00 24.5 17.9 67 5 14   101.17 30   LegendNANA
17:00 21.1 16.9 77 6 15   101.22 26   LegendNANA
18:00 18.1 16.4 90 6 16   101.24     LegendNANA
19:00 16.7 15.8 95 5 15   101.27     LegendNANA
20:00 16.8 15.4 92 6 11   101.32     LegendNANA
21:00 16.6 15.0 90 7 11   101.36     LegendNANA
22:00 16.2 14.9 92 3 5   101.46     LegendNANA
23:00 16.0 14.7 92 1 4   101.49     LegendNANA

Notes on Data Quality.

Legend

  • E = Estimated
  • M = Missing
  • NA = Not Available
  • ‡ = Partner data that is not subject to review by the National Climate Archives
Date modified: